GW5761 Weather Reports


time (UTC)temp
C
wind
direction
speed
KPH
gust
KPH
rain 1hr
cm
rain 24hr
cm
rain mn
cm
humidity
%
barometer
mb
20260505101914 20 209 22.5 24.1 0.00 0.00 0.00 85 1008.3
20260505101408 20 124 9.7 12.9 0.00 0.00 0.00 85 1008.2
20260505100905 20 144 6.4 22.5 0.00 0.00 0.00 85 1008.2
20260505100401 20 228 12.9 24.1 0.00 0.00 0.00 85 1008.1
20260505095857 20 209 4.8 22.5 0.00 0.00 0.00 85 1008.2
20260505095355 20 160 9.7 20.9 0.00 0.00 0.00 84 1008.3
20260505094850 20 201 9.7 24.1 0.00 0.00 0.00 84 1008.4
20260505094347 20 200 1.6 17.7 0.00 0.00 0.00 84 1008.3
20260505093843 20 174 9.7 17.7 0.00 0.00 0.00 84 1008.2
20260505093341 20 216 8.0 16.1 0.00 0.00 0.00 84 1008.2
20260505092838 20 203 6.4 17.7 0.00 0.00 0.00 84 1008.4
20260505092336 20 222 6.4 20.9 0.00 0.00 0.00 84 1008.5
20260505091833 20 225 14.5 20.9 0.00 0.00 0.00 84 1008.6
20260505091331 20 166 6.4 20.9 0.00 0.00 0.00 84 1008.7
20260505090829 20 163 8.0 12.9 0.00 0.00 0.00 83 1008.7
20260505090327 20 166 8.0 14.5 0.00 0.00 0.00 83 1008.7
20260505085824 20 178 6.4 17.7 0.00 0.00 0.00 83 1008.9
20260505085322 20 138 6.4 22.5 0.00 0.00 0.00 82 1008.9
20260505084819 20 213 4.8 14.5 0.00 0.00 0.00 82 1008.9
20260505084317 20 173 6.4 22.5 0.00 0.00 0.00 82 1008.9
20260505083814 20 242 6.4 14.5 0.00 0.00 0.00 82 1008.7
20260505083311 20 202 11.3 27.4 0.00 0.00 0.00 82 1009.0
20260505082808 20 180 4.8 19.3 0.00 0.00 0.00 82 1009.0
20260505082305 20 155 9.7 19.3 0.00 0.00 0.00 82 1009.1
20260505081801 20 209 8.0 17.7 0.00 0.00 0.00 82 1009.1
20260505081257 20 134 9.7 12.9 0.00 0.00 0.00 82 1009.1
20260505080754 20 151 4.8 17.7 0.00 0.00 0.00 82 1009.1
20260505080250 20 158 9.7 12.9 0.00 0.00 0.00 82 1009.2
20260505075746 20 246 6.4 12.9 0.00 0.00 0.00 81 1009.1
20260505075243 20 207 8.0 14.5 0.00 0.00 0.00 81 1009.2
20260505074740 20 247 6.4 14.5 0.00 0.00 0.00 81 1009.2
20260505074238 20 225 16.1 17.7 0.00 0.00 0.00 81 1009.0
20260505073735 20 172 8.0 17.7 0.00 0.00 0.00 81 1009.2
20260505073233 20 147 17.7 20.9 0.00 0.00 0.00 80 1009.4
20260505072729 20 162 3.2 14.5 0.00 0.00 0.00 80 1009.5
20260505072225 20 142 9.7 17.7 0.00 0.00 0.00 80 1009.4
20260505071721 20 129 14.5 17.7 0.00 0.00 0.00 80 1009.5
20260505071218 20 142 12.9 17.7 0.00 0.00 0.00 80 1009.3
20260505070716 20 167 3.2 12.9 0.00 0.00 0.00 80 1009.6
20260505070212 20 129 6.4 14.5 0.00 0.00 0.00 79 1009.6
20260505065708 20 153 8.0 11.3 0.00 0.00 0.00 79 1009.7
20260505065205 20 137 6.4 20.9 0.00 0.00 0.00 79 1009.8
20260505064702 20 132 3.2 14.5 0.00 0.00 0.00 78 1009.8
20260505064200 20 170 4.8 16.1 0.00 0.00 0.00 78 1009.7
20260505063657 20 180 9.7 14.5 0.00 0.00 0.00 78 1009.8
20260505063153 20 142 9.7 16.1 0.00 0.00 0.00 77 1009.9
20260505062649 20 160 4.8 12.9 0.00 0.00 0.00 77 1010.0
20260505062147 20 170 8.0 11.3 0.00 0.00 0.00 77 1009.9
20260505061644 20 193 6.4 19.3 0.00 0.00 0.00 76 1009.9
20260505061142 20 205 6.4 14.5 0.00 0.00 0.00 76 1010.1
20260505060639 20 153 8.0 8.0 0.00 0.00 0.00 76 1010.1
20260505060136 20 199 3.2 12.9 0.00 0.00 0.00 76 1010.3
20260505055631 20 208 12.9 17.7 0.00 0.00 0.00 76 1010.3
20260505055128 20 165 8.0 12.9 0.00 0.00 0.00 76 1010.2
20260505054625 20 185 6.4 14.5 0.00 0.00 0.00 75 1010.2
20260505054123 20 139 9.7 16.1 0.00 0.00 0.00 75 1010.3
20260505053620 20 179 6.4 16.1 0.00 0.00 0.00 75 1010.4
20260505053117 21 122 9.7 14.5 0.00 0.00 0.00 75 1010.1
20260505052614 21 150 6.4 16.1 0.00 0.00 0.00 74 1010.2
20260505052111 21 202 11.3 19.3 0.00 0.00 0.00 74 1010.2
20260505051608 21 224 9.7 17.7 0.00 0.00 0.00 74 1010.0
20260505051106 21 189 14.5 19.3 0.00 0.00 0.00 74 1010.0
20260505050604 21 169 12.9 20.9 0.00 0.00 0.00 74 1010.0
20260505041531 21 174 4.8 19.3 0.00 0.00 0.00 71 1010.4
20260505041029 21 185 6.4 11.3 0.00 0.00 0.00 70 1010.3
20260505040526 21 188 9.7 16.1 0.00 0.00 0.00 70 1010.3
20260505040023 21 158 14.5 16.1 0.00 0.00 0.00 70 1010.4
20260505035519 21 211 4.8 14.5 0.00 0.00 0.00 70 1010.3
20260505035016 21 185 6.4 19.3 0.00 0.00 0.00 69 1010.4
20260505034512 21 201 3.2 19.3 0.00 0.00 0.00 69 1010.4
20260505034010 21 167 6.4 19.3 0.00 0.00 0.00 68 1010.4
20260505033507 21 148 6.4 14.5 0.00 0.00 0.00 68 1010.3
20260505033005 21 196 6.4 17.7 0.00 0.00 0.00 68 1010.3
20260505032502 21 158 8.0 12.9 0.00 0.00 0.00 67 1010.3
20260505031958 21 186 4.8 16.1 0.00 0.00 0.00 67 1010.6
20260505031455 21 155 11.3 14.5 0.00 0.00 0.00 67 1010.5
20260505030952 21 196 12.9 14.5 0.00 0.00 0.00 66 1010.5
20260505030448 22 145 6.4 14.5 0.00 0.00 0.00 66 1010.3
20260505025943 22 173 4.8 9.7 0.00 0.00 0.00 66 1010.5
20260505025441 22 195 3.2 12.9 0.00 0.00 0.00 65 1010.3
20260505024939 22 187 4.8 8.0 0.00 0.00 0.00 65 1010.3
20260505024437 22 125 4.8 9.7 0.00 0.00 0.00 65 1010.3
20260505023933 22 171 6.4 8.0 0.00 0.00 0.00 64 1010.3
20260505023430 22 151 0.0 9.7 0.00 0.00 0.00 64 1010.2
20260505022928 22 129 8.0 8.0 0.00 0.00 0.00 63 1010.1
20260505022426 22 145 3.2 9.7 0.00 0.00 0.00 63 1010.2
20260505021922 22 111 3.2 8.0 0.00 0.00 0.00 63 1010.3
20260505021418 22 182 3.2 11.3 0.00 0.00 0.00 62 1010.1
20260505020914 22 219 6.4 11.3 0.00 0.00 0.00 62 1009.8
20260505020410 22 124 9.7 11.3 0.00 0.00 0.00 61 1010.1
20260505015907 22 134 9.7 17.7 0.00 0.00 0.00 61 1010.0
20260505015404 22 199 4.8 8.0 0.00 0.00 0.00 61 1009.8
20260505014901 22 156 6.4 9.7 0.00 0.00 0.00 60 1009.7
20260505014358 22 186 8.0 9.7 0.00 0.00 0.00 60 1009.8
20260505013855 22 182 8.0 9.7 0.00 0.00 0.00 59 1009.9
20260505013352 22 167 6.4 9.7 0.00 0.00 0.00 59 1009.7
20260505012851 23 143 3.2 8.0 0.00 0.00 0.00 58 1009.7
20260505012348 23 180 4.8 12.9 0.00 0.00 0.00 57 1009.6
20260505011844 23 151 3.2 11.3 0.00 0.00 0.00 57 1009.7
20260505011341 23 151 4.8 6.4 0.00 0.00 0.00 56 1009.7
20260505010837 23 180 6.4 8.0 0.00 0.00 0.00 55 1009.6
20260505010333 23 128 8.0 9.7 0.00 0.00 0.00 55 1009.4
20260505005829 23 179 3.2 9.7 0.00 0.00 0.00 53 1009.5
20260505005326 23 169 4.8 8.0 0.00 0.00 0.00 53 1009.7
20260505004824 24 130 6.4 6.4 0.00 0.00 0.00 52 1009.7
20260505004320 24 188 6.4 8.0 0.00 0.00 0.00 52 1009.6
20260505003817 24 179 4.8 9.7 0.00 0.00 0.00 51 1009.6
20260505003314 24 168 3.2 8.0 0.00 0.00 0.00 50 1009.7
20260505002810 25 196 3.2 12.9 0.00 0.00 0.00 49 1009.8
20260505002308 25 157 4.8 9.7 0.00 0.00 0.00 48 1009.8
20260505001806 25 176 9.7 12.9 0.00 0.00 0.00 47 1010.1
20260505001303 25 187 8.0 11.3 0.00 0.00 0.00 47 1010.2
20260505000800 25 239 9.7 9.7 0.00 0.00 0.00 46 1010.1
20260505000258 25 145 11.3 12.9 0.00 0.00 0.00 45 1010.0
20260504235754 26 133 6.4 12.9 0.00 0.00 0.00 44 1010.2
20260504235250 26 133 6.4 14.5 0.00 0.00 0.00 43 1010.3
20260504234748 26 159 3.2 16.1 0.00 0.00 0.00 42 1010.4
20260504234245 26 154 1.6 16.1 0.00 0.00 0.00 43 1010.3
20260504233741 26 223 8.0 17.7 0.00 0.00 0.00 42 1010.2
20260504233237 26 226 17.7 20.9 0.00 0.00 0.00 42 1010.3
20260504232734 26 156 11.3 20.9 0.00 0.00 0.00 41 1010.5
20260504232231 26 183 11.3 16.1 0.00 0.00 0.00 41 1010.6
20260504231728 27 202 9.7 17.7 0.00 0.00 0.00 40 1010.7
20260504231224 27 232 4.8 27.4 0.00 0.00 0.00 40 1010.6
20260504230720 27 147 11.3 17.7 0.00 0.00 0.00 41 1010.6
20260504230219 27 157 9.7 22.5 0.00 0.00 0.00 41 1010.8
20260504225717 27 153 6.4 17.7 0.00 0.00 0.00 41 1010.9
20260504225213 26 206 9.7 24.1 0.00 0.00 0.00 41 1010.9
20260504224711 26 175 8.0 20.9 0.00 0.00 0.00 41 1011.0
20260504224208 27 169 9.7 24.1 0.00 0.00 0.00 41 1011.1
20260504223704 27 239 11.3 19.3 0.00 0.00 0.00 40 1011.1
20260504223200 27 179 4.8 19.3 0.00 0.00 0.00 41 1011.1
20260504222657 27 172 9.7 20.9 0.00 0.00 0.00 40 1011.1
20260504222153 27 216 9.7 14.5 0.00 0.00 0.00 41 1011.4
20260504221651 27 151 14.5 17.7 0.00 0.00 0.00 40 1011.2
20260504221148 27 223 8.0 19.3 0.00 0.00 0.00 41 1011.4
20260504220644 27 144 12.9 14.5 0.00 0.00 0.00 40 1011.2
20260504220142 27 163 9.7 20.9 0.00 0.00 0.00 41 1011.6
20260504215638 27 185 6.4 14.5 0.00 0.00 0.00 41 1011.5
20260504215136 27 224 11.3 24.1 0.00 0.00 0.00 41 1011.5
20260504214631 27 200 1.6 14.5 0.00 0.00 0.00 41 1011.6
20260504214128 27 184 6.4 20.9 0.00 0.00 0.00 41 1011.7
20260504213625 27 220 6.4 14.5 0.00 0.00 0.00 41 1011.7
20260504213121 27 221 16.1 20.9 0.00 0.00 0.00 41 1011.8
20260504212618 27 209 9.7 17.7 0.00 0.00 0.00 42 1012.1
20260504212115 27 184 8.0 14.5 0.00 0.00 0.00 43 1012.0
20260504211612 26 138 16.1 24.1 0.00 0.00 0.00 43 1012.2
20260504211109 27 164 12.9 32.2 0.00 0.00 0.00 42 1012.3
20260504210606 27 223 14.5 17.7 0.00 0.00 0.00 41 1012.4
20260504205601 27 180 4.8 17.7 0.00 0.00 0.00 42 1012.5
20260504205058 26 245 3.2 19.3 0.00 0.00 0.00 43 1012.6
20260504204555 27 126 11.3 17.7 0.00 0.00 0.00 42 1012.7
20260504204055 27 161 11.3 16.1 0.00 0.00 0.00 42 1012.6
20260504203552 26 216 8.0 14.5 0.00 0.00 0.00 43 1013.0
20260504203050 27 226 4.8 20.9 0.00 0.00 0.00 42 1013.1
20260504202545 27 165 6.4 17.7 0.00 0.00 0.00 43 1013.1
20260504202042 27 157 11.3 17.7 0.00 0.00 0.00 42 1013.2
20260504201539 26 188 6.4 19.3 0.00 0.00 0.00 42 1013.5
20260504201037 26 162 6.4 20.9 0.00 0.00 0.00 42 1013.5
20260504200533 26 174 9.7 12.9 0.00 0.00 0.00 42 1013.6
20260504200030 26 193 8.0 17.7 0.00 0.00 0.00 42 1013.9
20260504195526 26 147 8.0 19.3 0.00 0.00 0.00 42 1013.7
20260504195023 26 203 12.9 25.7 0.00 0.00 0.00 42 1013.8
20260504194519 26 202 6.4 24.1 0.00 0.00 0.00 41 1013.8
20260504194014 26 163 9.7 24.1 0.00 0.00 0.00 42 1014.0
20260504193511 26 160 9.7 16.1 0.00 0.00 0.00 41 1014.2
20260504193010 26 227 14.5 24.1 0.00 0.00 0.00 40 1014.2
20260504192508 26 250 11.3 22.5 0.00 0.00 0.00 41 1014.4
20260504192006 27 238 8.0 25.7 0.00 0.00 0.00 40 1014.3
20260504191503 26 127 8.0 14.5 0.00 0.00 0.00 42 1014.3
20260504190959 26 243 8.0 14.5 0.00 0.00 0.00 43 1014.3
20260504190455 26 222 16.1 24.1 0.00 0.00 0.00 43 1014.3
20260504185952 26 195 9.7 16.1 0.00 0.00 0.00 42 1014.4
20260504185449 26 191 6.4 9.7 0.00 0.00 0.00 40 1014.6
20260504184945 26 151 4.8 9.7 0.00 0.00 0.00 42 1014.7
20260504184441 25 160 12.9 19.3 0.00 0.00 0.00 43 1014.7
20260504183936 25 157 8.0 24.1 0.00 0.00 0.00 44 1014.9
20260504183434 25 282 9.7 22.5 0.00 0.00 0.00 43 1014.9
20260504182932 25 259 9.7 19.3 0.00 0.00 0.00 44 1015.0
20260504182429 25 186 4.8 20.9 0.00 0.00 0.00 43 1015.4
20260504181926 25 181 3.2 14.5 0.00 0.00 0.00 44 1015.1
20260504181423 25 159 9.7 20.9 0.00 0.00 0.00 44 1015.0
20260504180922 25 243 11.3 24.1 0.00 0.00 0.00 44 1015.4
20260504180420 24 186 16.1 30.6 0.00 0.00 0.00 46 1015.5
20260504175918 25 127 19.3 27.4 0.00 0.00 0.00 44 1015.5
20260504175414 25 130 11.3 14.5 0.00 0.00 0.00 46 1015.7
20260504174912 24 253 8.0 22.5 0.00 0.00 0.00 45 1015.9
20260504174410 24 209 14.5 27.4 0.00 0.00 0.00 44 1015.9
20260504173907 25 182 9.7 24.1 0.00 0.00 0.00 44 1016.0
20260504173403 25 205 14.5 19.3 0.00 0.00 0.00 44 1016.0
20260504172900 25 233 9.7 11.3 0.00 0.00 0.00 45 1015.9
20260504172357 24 257 6.4 24.1 0.00 0.00 0.00 45 1016.0
20260504171852 24 190 9.7 22.5 0.00 0.00 0.00 44 1016.1
20260504171350 24 238 8.0 24.1 0.00 0.00 0.00 44 1016.1
20260504170847 23 168 6.4 29.0 0.00 0.00 0.00 44 1016.2
20260504170344 23 159 11.3 24.1 0.00 0.00 0.00 45 1016.0
20260504160302 22 170 9.7 22.5 0.00 0.00 0.00 51 1016.8
20260504150727 21 245 4.8 16.1 0.00 0.00 0.00 56 1016.7
20260504150224 21 177 11.3 16.1 0.00 0.00 0.00 56 1017.1
20260504141154 18 170 6.4 12.9 0.00 0.00 0.00 67 1017.3
20260504140650 18 209 6.4 11.3 0.00 0.00 0.00 68 1017.2
20260504140146 18 216 9.7 17.7 0.00 0.00 0.00 69 1017.4
20260504130614 16 169 8.0 16.1 0.00 0.00 0.00 75 1017.1
20260504130111 16 139 6.4 11.3 0.00 0.00 0.00 76 1017.1
20260504110502 12 117 3.2 4.8 0.00 0.00 0.00 90 1016.6